GFSNW_sfc_30mbdewp_000.txt.gz
Dewpoint
50 49 48 49 49 50 49 44 34 52 54 32 33 36 29 28 29 31 31 28 26 26 26 26 27 28 31 32 30 28 27 27 25 21 25 27 25 25 22 24 22 28 27 23
49 49 48 49 49 48 50 38 43 50 49 37 43 34 31 29 27 27 28 30 31 31 30 29 29 34 35 35 35 34 31 30 26 23 29 28 23 25 23 30 28 23 25 25
49 49 48 48 49 48 48 41 36 35 39 43 35 33 31 32 33 32 32 31 31 31 31 31 31 34 36 35 35 33 36 26 24 21 18 19 18 19 20 20 26 25 26 23
48 49 49 48 49 48 48 42 36 31 35 38 33 31 29 30 31 31 32 30 30 31 30 30 30 33 33 33 32 34 32 29 29 27 23 20 19 19 20 19 21 20 23 22
48 49 49 48 49 47 48 40 38 39 37 35 33 33 30 28 28 31 28 29 30 30 33 28 28 27 26 29 33 32 34 37 33 28 23 22 22 21 20 19 19 20 22 23
49 50 48 48 49 51 43 43 45 40 39 35 34 37 32 29 33 35 29 30 31 34 33 35 35 35 33 31 33 36 38 37 32 28 31 31 29 29 23 22 22 23 24 26
50 50 49 47 49 50 54 49 41 45 40 39 37 34 31 30 33 31 30 31 35 36 37 38 39 39 37 35 35 39 37 37 37 29 32 23 26 25 25 24 24 24 25 30
49 50 49 47 48 50 50 46 48 45 42 43 36 33 31 33 32 33 38 37 37 37 38 38 29 29 26 33 32 36 40 39 30 31 27 25 26 28 28 27 27 28 33 35
49 49 49 48 47 49 52 52 54 45 43 40 34 32 35 37 40 41 41 42 42 40 43 36 26 29 28 30 31 35 38 40 37 31 27 22 26 28 31 31 27 37 38 37
49 49 49 49 48 48 53 53 55 53 44 39 39 36 38 39 40 39 41 43 43 41 42 33 34 31 29 27 30 33 32 35 32 30 28 30 28 30 32 28 33 40 40 38
49 49 49 50 48 48 52 54 53 54 43 43 43 41 38 37 39 42 41 40 44 45 36 36 38 37 34 32 30 32 30 32 31 31 28 26 33 31 31 38 41 41 39 38
49 49 49 50 50 48 50 51 51 53 49 47 50 49 49 46 44 41 43 37 43 45 41 42 42 37 38 37 29 25 27 33 33 33 33 34 35 36 40 43 41 40 40 38
50 50 49 49 50 49 50 53 53 51 53 46 46 44 47 48 48 49 41 42 39 41 46 43 40 33 40 31 36 30 28 27 34 33 33 32 34 37 42 42 41 39 38 37
50 51 50 50 50 49 51 52 53 51 50 39 47 47 46 48 48 46 48 45 47 48 45 41 38 33 40 38 36 35 35 31 30 31 33 34 39 41 41 40 39 39 37 36
50 50 50 49 50 50 53 53 53 53 50 42 48 46 47 47 48 46 47 48 46 47 44 38 36 44 41 43 42 39 35 31 32 34 37 39 40 40 39 39 38 37 35 28
49 49 49 49 50 50 54 46 52 53 54 48 40 48 45 46 47 46 45 45 45 45 46 42 44 43 40 38 36 35 33 31 33 33 41 42 42 40 38 35 31 29 27 25
48 49 49 49 50 53 51 48 51 50 54 46 41 44 44 45 46 47 46 46 45 45 44 44 45 43 41 39 36 35 32 32 33 40 41 39 39 37 37 31 28 26 24 19
49 49 50 50 50 50 51 52 51 52 50 49 41 41 43 45 44 44 45 46 46 46 43 44 42 41 41 37 36 35 34 34 38 38 39 38 36 36 29 27 23 19 15 16
49 49 50 52 51 49 51 49 52 54 50 44 41 37 36 44 42 43 43 43 39 44 42 42 41 40 36 37 36 34 34 36 36 37 35 32 29 26 24 20 17 16 17 18
48 49 47 44 46 49 50 49 47 48 49 47 40 44 39 41 39 38 39 39 38 35 37 39 36 36 37 35 36 37 37 37 37 35 31 29 27 22 18 17 18 20 24 23
46 43 42 43 47 48 47 42 42 42 39 42 42 41 38 42 37 37 39 36 37 32 34 35 33 32 35 37 37 37 36 35 34 33 31 27 19 17 18 21 26 27 27 27
44 43 44 44 40 38 39 37 38 37 37 38 37 39 41 40 41 38 35 34 33 30 35 31 30 32 35 36 36 35 34 32 27 23 19 18 18 21 27 28 28 29 30 30
41 38 36 35 33 31 31 29 31 33 34 35 35 34 36 36 37 33 32 30 29 35 31 29 30 33 32 35 35 32 28 24 22 18 18 22 20 24 25 26 29 30 31 30
34 32 30 30 30 30 30 30 31 34 35 35 34 33 33 33 33 32 29 31 32 27 26 27 33 29 31 32 32 28 23 19 21 23 24 25 27 27 28 29 29 29 29 30
33 33 28 29 31 32 32 32 33 35 37 36 34 34 34 31 30 31 30 26 26 28 29 31 31 31 31 30 29 24 22 22 26 25 24 25 27 27 28 30 31 32 32 31
34 33 30 32 32 31 32 32 32 36 36 37 36 31 30 29 30 27 27 27 25 30 33 32 28 27 27 25 25 26 27 26 27 27 28 29 30 29 30 33 33 32 32 31
32 30 33 33 33 32 32 34 34 38 34 31 32 28 27 30 28 27 31 29 32 33 33 30 29 28 28 28 29 30 29 29 29 29 30 30 31 33 32 30 31 32 33 33

GFSNW_sfc_30mbdewp_006.txt.gz
Dewpoint
49 49 49 50 50 51 50 48 32 53 42 21 38 35 37 30 27 31 31 32 30 25 29 32 32 32 33 37 36 24 30 26 23 24 26 27 26 27 26 18 25 28 25 23
49 49 49 49 49 50 48 43 47 53 42 18 27 37 34 29 28 28 29 30 32 32 31 31 35 35 37 32 33 32 31 24 22 27 30 28 25 26 31 28 24 21 17 16
47 49 49 49 48 48 51 46 36 41 46 41 34 31 31 31 34 32 32 31 33 32 32 36 34 35 36 31 30 34 36 31 23 18 22 23 19 21 30 26 22 22 22 20
48 49 48 49 48 47 47 47 33 31 24 32 41 39 32 31 30 32 32 30 32 31 31 34 35 35 34 34 32 34 34 27 29 25 27 26 23 23 23 24 26 23 22 26
49 48 48 49 48 46 45 43 40 38 26 28 36 38 34 32 32 31 31 29 34 33 32 32 33 32 33 32 34 37 37 29 28 23 31 30 22 22 24 23 22 23 31 32
49 48 48 49 49 49 43 47 48 34 42 29 33 34 33 33 33 33 34 36 35 33 36 38 37 39 38 36 34 36 33 28 24 15 30 29 20 25 27 26 30 25 24 33
49 48 48 49 50 52 54 53 49 39 36 36 30 37 35 34 33 34 38 37 35 38 40 34 32 33 38 39 36 34 33 33 28 18 24 9 27 29 29 33 35 35 35 34
48 49 48 48 49 50 52 52 50 39 34 42 38 37 39 39 40 39 39 40 39 39 33 26 28 28 28 36 39 40 34 29 25 16 20 18 24 28 27 26 33 37 36 36
48 49 49 48 48 51 51 52 54 41 35 40 43 39 39 36 37 38 41 44 46 40 34 25 17 12 20 27 35 37 37 31 23 27 12 4 22 32 33 31 27 38 38 36
48 49 50 49 48 50 52 50 55 49 40 43 42 37 38 42 40 38 42 41 40 37 28 25 29 30 29 26 27 30 32 32 24 26 20 22 26 31 33 26 19 39 38 38
48 48 49 49 48 50 53 51 54 48 43 47 49 46 41 42 40 36 41 38 39 36 26 22 30 33 30 30 31 30 24 23 27 28 25 17 30 33 29 29 41 41 40 38
49 48 49 49 49 51 55 49 54 54 45 47 49 49 49 46 41 42 42 31 40 37 32 34 37 33 36 30 26 33 24 24 24 28 25 29 32 32 37 40 40 41 39 39
49 49 48 49 49 51 53 52 54 50 44 44 44 44 48 48 48 46 37 43 45 44 40 39 38 28 37 30 32 31 32 34 32 33 32 34 35 42 43 43 41 41 40 39
49 48 48 48 49 50 54 52 54 46 42 32 44 48 46 48 49 49 45 45 47 45 40 36 35 27 36 30 30 33 28 35 32 32 34 39 40 42 43 42 41 41 40 39
48 48 48 48 49 50 54 53 52 53 41 34 45 47 47 48 49 48 48 46 45 43 39 35 33 34 38 38 37 33 35 30 29 27 33 34 36 42 42 41 40 40 39 22
48 48 49 50 51 53 52 45 52 51 52 41 36 45 45 46 48 48 47 47 47 44 39 37 38 43 36 35 35 38 39 39 36 35 38 40 40 42 41 40 39 36 25 20
47 49 50 50 51 50 47 41 49 50 50 40 40 40 43 45 48 46 46 48 47 45 42 39 39 42 40 36 33 35 37 37 38 40 42 41 41 40 41 29 25 21 20 20
48 50 50 51 50 50 50 50 50 51 47 41 37 38 40 45 43 42 44 43 44 44 42 42 42 41 38 36 38 39 39 39 39 43 41 41 40 36 29 22 20 20 20 21
49 50 51 48 48 47 50 49 50 52 45 40 39 34 32 43 41 41 41 41 40 41 41 41 41 39 37 37 37 38 39 38 39 41 38 39 36 23 21 20 21 20 21 21
50 48 43 42 45 47 49 46 43 43 45 43 39 39 38 41 38 38 39 38 37 36 38 40 37 36 39 39 40 39 38 38 40 37 35 30 27 25 22 22 23 23 23 23
47 44 43 44 46 47 44 39 38 40 39 41 40 39 39 41 38 38 38 36 36 33 33 35 32 31 33 36 37 38 39 39 36 31 31 29 28 25 26 25 25 24 23 21
45 44 44 42 40 40 38 37 37 37 36 37 39 39 40 40 40 37 36 34 34 30 35 33 29 30 35 37 33 29 26 27 28 30 30 27 25 23 18 15 14 19 24 26
42 39 36 37 34 33 34 32 33 34 34 36 37 37 37 38 38 35 35 32 30 35 31 29 30 36 29 25 26 27 29 30 27 25 27 21 19 19 17 15 21 24 26 27
36 35 32 32 30 30 30 31 32 33 34 34 34 33 35 34 35 33 31 31 31 28 26 26 32 35 31 31 29 26 26 27 27 21 20 19 19 21 25 26 26 26 26 27
33 32 28 29 30 32 32 32 32 34 35 35 34 33 33 31 30 31 29 27 25 27 26 30 32 35 34 29 23 20 21 23 24 24 23 24 24 25 26 27 28 29 29 29
32 31 29 31 30 31 32 32 32 35 35 35 33 31 30 29 29 27 27 25 24 28 31 32 34 32 28 28 24 24 26 26 25 25 27 28 28 27 28 30 29 29 29 29
30 30 32 32 31 31 31 33 34 37 34 30 31 28 26 30 27 27 30 27 30 33 34 33 31 27 28 29 29 29 30 29 30 29 28 28 28 28 30 28 28 28 29 29

GFSNW_sfc_30mbdewp_009.txt.gz
Dewpoint
49 49 49 50 50 52 50 42 24 51 36 25 37 29 37 37 27 30 32 31 27 25 30 32 31 30 33 36 35 25 31 26 24 24 28 30 26 26 24 14 21 25 22 21
49 49 49 50 50 50 48 39 48 52 32 21 26 31 36 31 28 29 30 30 32 33 33 30 34 34 35 30 32 30 30 25 23 26 28 27 26 28 28 26 25 25 19 16
49 49 49 49 50 50 48 42 40 42 42 34 22 28 32 31 33 32 32 32 33 32 34 36 34 34 35 31 32 36 34 29 21 15 22 24 19 23 28 24 20 20 20 21
48 48 49 49 49 49 48 44 32 36 34 34 41 35 34 31 30 32 32 30 32 31 32 34 34 35 33 32 34 36 32 23 28 27 28 26 23 22 26 26 26 22 23 24
48 48 49 49 48 48 45 44 35 36 28 30 39 38 36 31 31 31 30 29 34 33 31 31 33 31 30 27 37 37 33 26 26 27 31 29 22 23 23 23 23 26 27 28
49 48 48 49 47 47 42 47 49 33 36 32 31 35 35 33 33 36 35 34 33 33 36 38 39 38 37 36 35 34 29 27 17 9 28 25 12 19 25 24 28 26 27 30
48 48 48 49 47 49 49 51 46 38 33 27 31 37 36 35 33 33 37 37 34 36 36 34 33 35 39 39 37 34 31 27 23 17 19 6 14 27 29 27 33 34 32 34
49 48 48 49 49 50 51 51 46 38 35 33 36 37 38 39 40 39 40 40 39 38 29 30 29 27 28 36 39 36 33 26 21 13 14 14 15 29 31 28 28 35 34 34
49 49 49 49 50 52 49 53 49 40 39 40 40 38 38 35 36 37 40 44 42 37 27 22 18 15 19 26 34 37 33 26 18 23 9 1 8 31 32 30 25 37 35 35
49 49 49 49 51 53 48 51 54 44 40 44 41 37 36 39 37 36 41 41 39 34 26 19 22 20 26 20 25 30 33 30 21 20 16 17 21 32 32 25 17 38 37 36
48 49 49 49 51 52 50 52 53 44 43 47 48 44 41 41 39 35 40 38 38 32 26 19 25 30 30 28 29 30 27 24 24 25 21 13 28 30 29 29 34 38 38 38
49 48 48 49 51 53 53 50 54 52 45 46 49 49 49 46 40 41 41 35 37 35 29 29 33 30 33 29 23 32 24 22 21 24 19 28 31 32 34 36 36 39 39 39
47 47 48 49 51 53 53 52 53 45 43 44 44 46 48 49 48 45 37 40 42 39 37 37 36 27 34 28 30 31 32 32 27 30 29 30 32 34 40 41 39 41 41 39
47 47 48 49 51 53 53 51 52 42 38 36 43 48 46 49 49 49 43 44 45 41 38 35 33 26 34 29 30 32 30 34 31 32 33 35 38 39 40 42 42 41 40 39
48 48 49 49 52 52 52 51 51 51 35 34 43 46 47 47 48 47 47 45 43 40 37 35 33 32 35 36 34 31 34 29 28 24 28 32 32 37 41 42 41 41 39 36
48 49 49 50 51 53 45 35 50 51 48 39 37 44 45 47 48 47 47 47 44 42 39 37 35 38 36 34 34 35 37 37 32 30 34 34 37 40 42 41 41 41 32 26
48 49 50 49 49 49 42 35 48 49 47 38 40 40 43 45 46 45 46 46 46 43 40 37 37 40 39 35 32 32 35 37 38 39 41 40 41 40 42 37 34 27 22 22
49 50 50 50 50 50 48 50 48 48 43 39 34 37 39 44 43 43 43 43 44 43 41 40 40 39 37 36 36 37 38 38 38 39 41 39 41 40 30 23 22 21 22 22
49 49 48 46 47 46 49 48 49 48 42 37 37 31 29 42 39 39 40 41 40 40 40 40 40 37 36 37 38 38 38 38 38 41 40 40 36 25 21 23 25 27 23 22
48 45 40 41 45 47 47 44 42 41 43 42 37 37 37 41 38 38 38 38 38 35 38 40 38 37 39 38 37 38 39 39 40 38 36 26 25 29 33 33 33 27 25 25
45 43 42 45 46 44 41 38 37 39 38 40 38 38 38 41 38 39 37 36 35 32 34 36 33 31 33 35 34 34 36 35 33 33 32 33 33 32 31 28 29 29 23 21
44 44 43 40 38 38 36 34 37 36 35 37 38 39 40 40 39 37 36 35 34 31 35 33 28 30 26 27 30 31 32 32 33 33 32 32 33 34 34 30 21 22 25 26
41 39 37 38 35 35 34 32 33 34 34 35 36 37 36 38 37 35 35 32 31 34 31 30 31 29 31 31 32 32 33 35 35 35 35 30 20 20 20 21 24 25 23 26
36 36 33 33 31 30 31 31 32 32 33 34 35 33 35 34 35 33 31 31 32 28 26 26 31 31 33 34 33 31 30 32 30 22 21 22 22 22 24 25 26 25 25 26
32 31 28 28 30 31 31 32 33 33 35 35 34 33 34 32 31 31 29 27 25 26 25 29 32 33 33 27 22 24 26 26 24 24 25 26 26 26 26 27 28 28 28 28
31 30 29 31 30 30 32 32 32 35 34 34 34 31 30 29 29 27 26 25 23 27 31 32 33 30 31 31 31 30 30 28 27 28 29 28 27 27 27 29 28 28 27 27
29 29 32 32 31 31 32 33 34 36 34 30 31 28 26 29 27 26 29 27 29 32 34 33 33 29 33 33 31 30 30 28 26 26 26 27 27 27 27 27 27 28 28 28

GFSNW_sfc_30mbdewp_012.txt.gz
Dewpoint
50 50 49 50 51 52 52 37 28 49 36 26 33 26 37 39 29 31 32 28 26 24 30 30 29 28 31 35 35 27 30 26 23 23 28 31 27 25 22 12 16 23 21 17
50 49 50 50 51 52 48 36 48 51 33 21 25 29 34 36 28 30 30 31 31 34 32 29 33 33 34 30 32 29 28 25 23 23 24 26 26 30 26 25 26 23 19 13
50 49 49 50 50 52 46 42 39 43 36 31 22 24 27 31 33 32 32 33 33 34 34 35 33 34 34 32 34 36 31 27 20 12 19 24 22 27 26 22 19 19 22 18
48 49 49 50 50 51 49 39 38 41 37 33 26 26 32 31 30 32 31 31 31 31 32 33 32 35 32 33 36 36 29 22 27 28 28 26 23 21 27 24 23 20 21 22
48 48 49 49 50 50 46 42 34 32 35 38 35 32 26 31 31 32 29 28 34 33 30 29 31 31 27 22 37 34 30 23 24 27 30 28 23 23 24 26 26 26 26 25
48 49 49 49 49 48 43 47 44 33 34 36 35 35 35 33 33 36 35 33 33 32 35 37 37 36 36 35 33 30 26 24 16 8 26 22 14 18 22 22 24 23 21 23
49 48 49 49 49 48 46 48 45 35 28 30 34 35 36 35 33 32 37 36 33 38 39 35 34 35 38 37 36 33 26 23 18 13 17 6 12 27 26 25 28 30 30 31
48 48 49 49 48 49 51 51 45 37 27 30 30 37 37 39 40 39 39 41 39 37 30 30 29 27 27 33 37 32 29 23 17 12 14 12 12 25 28 27 23 33 32 33
49 49 48 49 48 48 50 52 45 41 29 30 36 38 38 35 36 37 41 43 39 33 25 21 24 23 22 21 33 35 30 24 16 19 8 1 8 26 32 29 23 33 34 34
49 49 49 49 49 49 50 52 51 43 41 44 40 36 36 38 36 36 40 39 38 32 22 19 17 15 24 16 19 28 32 28 18 17 14 15 18 31 31 22 15 35 35 35
49 49 50 50 51 50 51 52 53 44 44 47 48 44 39 40 38 34 40 37 36 29 25 20 23 26 26 26 27 29 25 23 22 21 18 11 25 31 27 28 30 35 36 36
47 47 49 50 52 52 52 50 54 51 45 46 49 48 48 46 39 41 41 35 37 34 29 24 30 28 30 27 19 31 24 24 19 21 16 24 29 32 33 34 32 36 37 38
47 48 49 50 52 52 52 52 50 45 43 44 45 46 48 49 47 44 37 37 40 36 34 31 31 23 32 25 27 30 31 30 25 27 26 27 30 31 34 36 36 38 39 39
47 49 50 51 52 52 52 49 50 41 40 38 42 47 47 48 49 47 43 43 41 39 37 32 30 23 33 28 29 30 30 33 30 30 31 32 33 36 36 37 40 40 41 40
48 49 50 52 51 51 51 51 50 49 33 36 41 45 45 48 48 46 45 42 40 38 35 33 30 31 33 34 33 29 33 28 27 24 26 27 27 31 38 40 40 41 40 39
48 49 49 50 52 49 37 37 48 50 46 38 37 43 44 46 47 47 46 45 42 40 38 36 34 36 34 33 32 32 34 34 32 28 31 32 33 38 40 39 41 41 39 33
50 49 49 48 49 48 37 36 47 47 45 37 38 40 41 43 46 44 45 46 44 41 39 37 36 39 37 34 31 32 33 35 36 38 39 38 40 38 41 41 39 30 24 23
49 49 49 49 49 49 47 49 47 47 40 37 32 36 39 43 42 42 42 42 43 42 39 38 38 38 37 36 36 38 39 39 39 39 40 39 40 34 27 25 24 24 25 27
48 46 46 45 46 46 48 48 47 46 40 34 35 28 28 42 39 39 40 40 40 40 39 39 39 36 35 37 37 36 37 38 39 40 40 36 27 23 25 27 30 30 31 32
46 44 39 40 45 47 46 42 40 40 42 41 36 37 36 41 39 38 38 38 37 34 36 39 38 37 36 31 32 32 35 38 39 38 28 26 30 33 33 33 32 32 33 33
44 42 42 46 44 42 39 37 35 38 37 38 38 37 37 40 38 38 36 36 35 32 33 36 33 32 29 30 32 33 33 33 33 33 33 34 33 33 33 33 33 32 31 27
44 44 43 39 38 37 34 33 36 35 34 37 38 38 39 38 38 37 36 34 33 30 35 33 29 27 29 31 33 34 35 35 35 35 35 35 35 35 34 32 27 25 26 26
40 38 37 36 35 34 32 30 33 33 34 35 36 37 36 38 37 35 36 33 31 34 30 29 29 32 33 34 34 35 36 35 35 34 33 29 25 25 24 22 26 27 26 27
36 37 34 32 31 30 30 31 32 32 33 34 35 34 36 34 35 33 32 31 31 28 26 25 30 31 31 32 33 32 30 25 22 23 24 24 24 25 27 27 26 27 26 27
32 31 28 28 30 31 31 32 32 33 34 34 34 33 34 32 31 31 29 27 25 25 24 28 31 31 30 25 30 31 28 27 25 25 26 26 26 26 26 27 28 28 28 27
30 30 29 30 30 30 31 32 32 35 34 34 34 31 30 29 29 27 25 24 22 25 30 31 32 31 31 32 33 32 32 30 27 28 28 28 26 26 27 28 27 27 27 27
28 29 32 32 31 31 32 33 33 36 34 30 30 28 26 29 26 26 28 25 28 31 32 33 32 33 33 33 33 31 30 29 27 27 27 27 26 26 27 27 28 28 28 27